Theta_e
318 319 319 319 320 331 335 335 336 337 339 340 338 338 338 337 337 336 335 335 334 335 333 331 332 332 331 330 330 330 330 328
316 316 317 317 318 320 326 336 336 336 337 337 336 336 336 336 336 336 336 335 335 334 332 331 333 331 330 330 331 331 331 330
315 315 315 316 318 318 320 323 333 337 337 336 334 333 334 335 335 335 336 336 335 335 333 330 331 331 331 331 331 331 330 330
315 314 314 314 314 316 317 319 322 329 337 337 337 334 333 333 334 335 336 337 336 336 334 333 331 331 330 332 332 332 329 330
315 313 313 313 313 312 314 316 319 324 331 338 338 337 335 334 334 334 335 336 336 336 335 334 334 333 332 331 332 332 332 330
315 313 312 311 311 310 310 312 314 317 324 330 338 338 337 336 335 334 335 335 336 336 336 336 335 335 334 333 333 334 333 333
314 312 311 310 309 308 308 308 309 311 313 319 332 338 338 338 336 335 333 334 334 335 335 336 337 335 335 334 334 334 334 333
313 311 310 308 307 306 306 306 305 304 308 311 314 324 338 338 338 338 336 334 334 334 334 335 336 336 335 334 334 334 334 334
310 308 308 307 306 305 304 303 305 303 303 307 309 309 313 328 338 337 338 337 336 335 334 334 335 334 334 334 335 334 334 335
308 306 306 306 305 305 303 302 301 302 302 303 305 306 308 309 314 326 330 337 337 336 336 335 335 335 334 334 335 334 334 335
308 306 305 304 304 303 304 301 300 300 301 302 304 303 304 305 307 309 309 315 330 337 337 337 337 337 336 336 336 336 336 337
308 306 305 304 303 302 302 301 300 300 300 300 301 302 302 303 303 303 305 307 309 320 335 338 338 338 338 338 338 338 338 337
307 305 304 304 303 302 302 300 300 300 300 299 300 301 300 301 301 301 300 303 305 306 309 324 335 338 338 337 338 339 338 337
307 305 304 303 303 302 301 300 299 299 300 299 299 299 299 299 299 300 300 300 302 305 304 309 316 332 337 337 338 339 339 340
306 305 304 303 302 301 300 299 299 299 299 299 299 298 297 298 298 298 298 300 300 300 303 305 308 313 331 331 335 338 339 337
305 305 304 302 301 300 300 299 299 298 298 298 298 297 296 296 296 297 297 298 299 300 301 303 306 308 312 307 309 327 333 333
305 304 302 302 300 299 299 298 298 298 298 297 297 297 297 296 295 296 297 297 297 298 299 300 303 306 305 304 302 306 322 331
304 303 301 300 299 299 298 298 298 297 297 297 297 296 296 296 295 295 296 296 296 296 297 299 301 303 303 300 299 302 312 323
303 302 301 299 298 298 297 297 297 297 297 296 296 296 296 296 296 295 295 295 296 296 296 298 299 301 300 300 298 303 306 315
Wind_Speed
29 30 29 26 25 12 19 24 28 29 28 28 26 26 28 28 28 28 27 27 29 29 27 25 24 24 24 23 23 22 22 21
31 32 33 33 31 28 24 20 25 27 30 31 32 31 30 30 31 30 30 29 29 31 30 28 27 27 27 25 24 24 23 21
36 37 36 40 36 31 29 25 21 27 31 31 32 31 31 31 32 34 35 34 34 34 34 32 30 29 28 28 26 25 24 22
26 36 37 38 43 40 34 30 28 24 30 31 31 30 30 30 33 34 37 36 35 36 33 33 31 31 30 30 29 28 26 23
25 30 35 36 37 38 40 39 34 27 24 31 33 32 31 33 33 34 34 37 39 38 40 37 35 33 33 31 30 30 28 26
21 27 30 34 35 38 38 42 42 40 32 25 32 34 34 32 31 32 33 34 38 38 37 37 38 37 34 33 30 30 31 30
21 26 27 31 35 38 39 41 44 46 49 36 26 35 32 31 29 30 30 31 33 36 37 38 38 37 37 35 32 32 31 30
18 23 27 30 34 37 36 39 41 44 43 47 46 30 31 33 33 31 29 28 29 31 33 35 37 37 35 33 33 33 34 33
17 22 23 25 29 33 35 36 37 38 41 42 40 50 39 22 28 31 32 30 31 29 31 34 37 37 35 35 34 34 33 34
17 22 23 25 27 27 30 35 35 35 35 36 37 38 40 42 33 21 25 32 31 30 30 32 33 35 37 36 37 37 37 35
14 19 22 25 25 25 26 31 33 33 34 34 32 34 35 33 36 40 39 34 24 27 30 32 33 34 35 35 34 34 34 34
12 17 20 22 23 26 25 27 28 32 34 32 31 30 32 35 36 37 37 34 39 25 20 31 34 33 33 33 33 33 33 33
12 15 19 22 24 26 26 26 26 29 30 30 29 29 32 32 34 37 41 35 35 36 34 26 17 33 32 34 33 32 32 30
13 17 18 21 24 25 26 28 27 26 26 26 28 31 33 32 32 33 34 37 38 36 37 34 32 23 25 37 34 34 33 31
12 15 20 22 24 26 26 24 24 24 24 26 27 29 32 31 32 33 32 31 32 38 35 32 32 32 22 18 15 24 23 24
12 14 20 23 26 27 25 26 26 25 26 25 25 25 28 37 34 35 33 32 32 30 31 31 27 26 25 32 28 18 27 29
13 16 20 23 24 24 25 27 27 27 26 25 26 27 25 25 33 37 35 37 33 33 32 28 31 26 26 30 31 26 22 22
13 16 19 21 21 21 23 24 25 25 24 25 25 25 25 24 25 27 32 37 35 37 36 32 30 30 30 33 31 28 21 17
13 18 19 19 20 22 23 24 24 24 24 26 26 27 28 28 25 26 28 28 32 34 32 34 34 32 32 33 36 24 23 20
Wind_Direction
18 19 17 9 358 292 249 238 234 225 221 224 230 231 229 225 225 225 226 226 222 222 226 227 223 224 224 223 225 226 230 235
29 27 24 18 11 360 343 260 248 238 228 223 221 226 228 229 229 227 224 226 223 221 224 224 224 225 226 225 225 226 228 231
31 31 29 28 19 11 3 341 294 250 243 238 236 232 230 231 229 230 227 221 221 221 221 222 223 227 228 225 224 228 232 227
27 24 26 24 24 18 11 359 338 303 252 249 243 240 241 234 232 230 228 228 223 220 223 224 223 222 227 226 223 223 230 229
24 22 22 21 20 17 17 13 6 347 301 250 250 238 234 233 233 233 231 228 226 224 217 219 224 226 226 226 226 227 225 230
20 21 21 20 16 15 16 15 14 7 349 309 247 249 246 247 241 240 234 232 231 230 227 225 220 221 229 229 227 225 227 231
20 18 15 20 22 21 16 18 13 12 11 357 314 246 253 257 255 248 239 238 237 234 232 229 228 227 226 227 229 231 232 236
16 19 13 15 18 16 19 13 17 7 7 12 9 357 254 257 261 260 253 246 242 239 233 231 233 234 234 232 230 229 229 231
25 21 17 16 13 12 13 9 6 10 5 7 3 16 6 339 273 258 262 255 249 243 237 232 232 232 233 232 229 230 230 229
24 19 18 13 15 10 7 12 1 2 7 1 4 6 7 9 1 2 328 265 253 249 243 239 239 234 228 226 226 226 225 225
17 13 13 11 12 5 8 9 2 356 5 0 355 5 6 3 1 358 14 354 335 267 246 238 239 237 236 230 228 229 229 228
10 7 6 6 4 5 9 -0 359 358 356 358 350 357 0 2 5 355 357 357 348 0 311 248 237 237 236 230 231 230 225 226
4 1 359 358 360 357 356 359 355 359 346 353 351 350 359 359 352 350 360 350 348 356 352 358 306 239 232 224 230 226 225 217
350 354 358 354 353 352 351 352 350 352 347 345 351 352 354 353 348 345 342 349 350 348 357 358 356 326 239 222 228 230 221 220
348 346 348 350 349 345 345 347 343 345 345 349 347 349 350 345 341 343 342 340 344 349 347 348 351 346 329 304 260 234 217 218
346 343 343 343 343 342 343 342 345 346 345 344 351 347 330 347 339 338 336 342 339 340 344 342 339 345 346 354 356 289 240 234
338 340 341 340 338 339 339 341 342 342 341 343 342 339 343 315 338 338 332 337 336 339 333 335 331 329 327 335 347 339 313 288
336 337 338 336 336 336 336 335 335 337 340 339 336 333 326 331 332 326 323 329 331 336 328 324 318 317 318 328 339 336 318 309
332 333 333 335 333 332 330 332 333 334 336 336 337 334 331 332 328 323 319 320 314 330 320 313 315 305 316 322 329 322 317 312